Find Starlink 31435

NORAD ID: 59004 Int'l Des: 2024-036 Owner: SPXS Country: US Constellation: starlink operational
LEOCIRCULAR

現在のビュー

3D地球を読み込み中...

About Starlink 31435

Starlink 31435 (NORAD 59004) is a starlink constellation satellite (v2 mini) launched Feb 23, 2024 by SPXS of US. It operates in LEO, CIRCULAR orbit with a mass of 730.00 kg.

Starlink 31435について

説明を読み込み中...

次回通過

Passes for default location (London). Set your location on the main map for personalized predictions.

高度履歴

Loading altitude history...

軌道要素

1 59004U 24036G 26171.14802370 .00001852 00000-0 74605-4 0 9997
2 59004 53.1624 321.9679 0000698 86.1152 273.9929 15.30202924131020
Epoch: Jun 20, 2026 • Age: 15 hours

現在のステータス

高度 487.0 km
速度 7.62 km/s
衛星直下点 -35.76°S, 17.2°W
打ち上げ日 Feb 23, 2024
運用期間 2.3 years
タイプ internet

技術仕様

分類 Payload
質量 730.00 kg
乾燥質量 700.00 kg
総質量 730.00 kg
長さ 0.30 m
直径 4.10 m
スパン 29.00 m
形状 Box + pan
製造者 SPXS
バスタイプ Starlink V2M
フェーズステータス In Orbit
所有者/国 SPXS/US

Most Searched